Theta_e
308 310 309 308 310 311 311 314 313 313 313 313 313 312 311 310 309 304 302 301 302 302 307 305 309 308 309 311 315 317 319 321 322 321 321 317 319 319 318 318 319 320 323 323 327
301 301 300 298 300 301 305 309 313 313 313 312 311 312 311 307 307 306 303 301 301 302 305 305 307 307 309 310 313 315 316 321 319 317 317 316 316 317 315 315 315 317 321 321 328
301 301 300 299 298 298 301 307 311 312 313 312 312 310 311 307 306 304 303 302 301 304 304 304 305 307 309 310 312 313 318 319 319 317 317 314 313 313 313 315 316 317 318 319 328
301 301 301 299 299 298 298 302 308 309 312 313 311 308 310 307 307 304 303 302 302 303 302 301 306 307 308 310 311 313 314 316 318 319 313 312 312 311 312 316 315 315 317 319 327
298 299 298 298 298 298 298 298 300 303 307 312 311 306 308 305 306 304 302 302 302 303 303 302 306 306 307 308 310 310 312 315 317 317 315 313 311 312 311 315 314 313 316 317 323
297 297 297 297 297 297 298 298 298 298 301 306 307 304 307 301 304 303 303 303 302 301 301 301 306 306 306 308 307 309 310 312 313 313 312 309 309 308 311 315 313 312 314 316 318
298 297 298 297 297 297 297 297 298 298 298 299 304 306 306 306 304 303 302 301 301 300 300 301 305 306 306 306 307 307 307 307 307 311 309 308 309 305 311 313 314 313 311 313 315
298 298 297 296 297 297 297 297 298 298 298 303 305 306 305 304 303 302 302 301 301 301 303 306 305 306 306 306 305 305 305 307 307 306 308 311 313 310 312 312 312 313 313 313 312
296 296 295 296 296 297 297 298 300 303 303 306 306 304 304 302 302 301 301 301 301 302 306 306 306 305 305 305 304 304 306 305 307 305 305 305 309 309 310 310 307 308 309 309 310
296 295 295 295 296 297 298 300 304 306 306 304 304 303 303 302 301 302 301 302 302 303 306 305 305 302 301 302 305 306 303 303 304 304 302 302 303 305 302 301 301 303 303 305 306
296 295 295 295 298 299 299 301 301 301 302 304 304 303 303 302 304 303 302 303 303 304 303 302 302 303 302 302 304 303 302 302 301 301 302 301 302 304 304 302 300 303 303 304 304
295 294 294 294 298 301 300 301 298 299 301 302 304 304 305 304 304 305 303 302 303 302 301 301 302 302 303 302 303 303 304 303 302 301 301 300 300 302 300 300 302 303 303 305 305
293 294 294 294 297 299 302 300 301 302 302 302 305 306 303 306 305 305 303 302 303 301 301 301 301 302 302 302 303 302 303 303 304 301 299 298 299 302 300 299 301 302 304 306 306
293 292 294 294 295 297 300 302 303 302 293 297 305 303 302 302 303 302 302 302 301 301 300 300 301 302 302 302 302 303 302 303 303 302 302 299 299 301 301 300 300 300 301 303 304
292 292 293 294 295 295 294 301 303 302 290 295 302 303 302 302 302 301 301 301 300 301 300 301 301 301 303 303 302 302 300 302 303 301 300 301 299 300 301 301 301 300 303 304 304
292 292 292 295 294 295 298 302 303 291 290 298 301 301 301 301 301 300 301 301 300 299 298 298 299 301 301 301 301 301 302 302 300 300 293 300 300 300 299 302 301 302 303 304 306
292 292 293 295 293 297 301 304 292 290 292 295 303 301 301 301 301 299 299 299 299 298 299 299 299 299 300 301 301 301 302 305 303 293 298 298 299 301 301 300 301 302 304 305 304
292 292 295 293 292 298 301 293 286 279 283 295 302 300 301 298 301 300 299 298 297 298 297 298 301 299 299 301 302 302 303 304 304 297 298 299 299 301 301 301 302 303 302 303 305
292 292 293 292 292 299 300 286 285 287 298 300 299 293 294 298 300 299 299 298 298 296 298 298 300 298 299 300 301 301 301 303 306 291 296 300 301 301 303 302 301 301 302 302 303
292 291 291 291 292 298 292 290 292 296 295 297 298 292 295 294 299 300 299 296 297 297 297 299 299 298 298 299 299 300 300 301 300 307 297 300 300 302 303 304 302 301 301 302 302
291 291 291 291 294 297 283 286 296 295 293 296 299 296 298 299 298 297 299 294 294 297 297 298 299 300 298 297 299 299 296 298 303 303 299 296 303 299 301 302 302 301 301 302 302
291 285 291 291 290 281 282 293 291 293 292 293 295 296 296 293 291 298 301 296 293 294 295 297 301 300 299 298 297 299 299 301 303 302 301 298 306 304 303 300 299 300 301 302 302
291 291 290 290 281 279 284 290 290 293 291 291 292 293 292 289 287 291 293 294 292 292 295 295 298 298 297 298 296 297 297 299 299 300 302 298 305 301 303 302 300 301 305 305 304
291 284 290 290 289 285 282 285 290 290 291 291 293 292 289 285 288 284 291 291 291 290 292 295 297 299 299 298 294 298 299 298 297 300 300 302 304 304 304 305 304 305 305 304 305
291 286 288 281 285 287 288 288 290 287 290 291 291 291 289 282 282 283 285 289 289 290 292 290 287 293 291 292 293 296 298 300 300 300 301 303 301 302 303 303 303 303 302 303 303
292 290 289 289 287 287 288 286 290 288 288 290 290 290 289 283 287 283 282 283 288 286 286 287 283 289 288 291 294 293 293 298 301 300 300 300 301 300 301 303 300 302 302 300 303
292 291 291 290 288 288 288 287 289 290 289 290 289 286 289 289 289 288 289 288 286 284 284 285 282 281 282 290 290 290 295 299 302 300 299 301 302 302 302 303 303 303 303 303 304
Wind_Speed
25 24 25 25 24 24 22 18 16 15 14 15 17 19 19 17 15 15 16 9 6 10 7 11 12 11 12 11 9 5 2 7 12 8 5 2 2 3 3 5 6 13 7 10 20
21 22 22 21 22 22 23 22 19 17 15 16 17 19 19 18 17 18 9 10 8 11 10 7 11 12 8 7 8 5 5 9 3 4 4 2 3 3 2 4 5 8 12 10 23
20 20 20 18 18 17 17 18 20 19 17 16 17 18 18 17 15 3 6 4 9 9 9 8 7 12 4 6 10 7 7 13 2 7 8 3 3 4 3 4 8 15 17 17 26
19 19 21 20 20 19 17 18 19 19 18 17 18 19 17 14 4 3 4 0 9 10 9 8 10 8 5 6 10 3 11 16 6 19 4 3 3 3 7 5 3 7 12 20 27
20 21 21 22 20 20 18 17 17 17 17 18 18 18 15 8 8 8 6 4 6 10 10 9 12 6 4 5 6 5 5 7 21 24 13 9 10 9 12 14 11 8 11 21 26
20 21 22 21 20 19 17 15 15 14 15 17 17 15 11 4 6 6 5 5 6 7 9 12 5 10 4 5 7 4 8 22 21 14 12 8 7 7 11 16 18 14 13 19 27
22 24 23 22 18 16 15 14 14 12 11 11 11 11 10 13 8 7 5 4 4 5 8 10 10 8 2 3 7 8 8 8 6 11 7 7 11 11 22 22 18 20 21 19 26
25 25 23 23 17 14 14 14 13 10 6 6 8 8 6 7 7 6 7 8 8 6 5 3 13 5 4 6 3 3 2 3 3 8 6 14 23 3 13 28 32 34 30 30 30
24 23 23 22 16 14 13 12 10 7 4 4 4 4 6 4 2 2 4 3 3 4 4 2 7 5 2 1 4 3 4 4 6 9 3 7 9 4 17 25 26 28 30 34 35
26 24 23 21 17 14 11 7 7 5 2 1 3 3 2 2 2 2 1 1 1 2 3 2 3 1 1 4 6 4 4 4 6 1 2 1 16 11 7 11 17 18 23 32 35
25 23 21 21 16 17 12 3 2 2 2 2 3 4 4 1 3 2 2 2 3 3 3 1 1 9 9 4 4 1 3 4 3 2 3 7 14 20 14 15 17 30 30 24 29
23 22 19 18 11 15 13 10 10 7 9 4 6 11 13 17 7 7 5 4 3 4 3 3 7 8 2 5 7 5 5 7 6 4 4 6 12 18 8 12 24 30 30 37 30
25 23 20 15 7 9 15 16 10 4 4 8 3 3 2 1 4 3 6 4 3 4 5 6 5 3 6 3 4 4 6 6 10 5 4 6 9 12 7 16 22 28 34 33 34
25 26 21 13 4 11 6 8 8 2 4 3 1 1 1 0 1 3 7 2 1 4 5 5 4 4 3 5 7 6 8 10 8 1 4 2 6 6 6 9 6 17 29 36 36
23 25 19 18 9 12 14 5 4 4 5 4 1 2 1 2 2 0 5 3 3 2 4 6 2 3 4 7 7 8 1 3 3 4 2 2 1 7 2 7 10 10 26 32 38
23 22 18 12 9 14 7 4 1 6 6 4 4 5 4 1 1 0 0 2 1 3 4 7 2 3 6 2 3 2 2 4 4 2 2 8 8 5 5 9 8 4 11 24 29
24 21 12 11 16 12 6 1 5 5 5 7 4 5 5 3 2 1 1 1 3 2 3 4 5 3 3 3 1 2 1 2 3 3 6 3 4 7 7 11 6 7 10 9 16
24 19 7 10 16 7 3 5 4 2 5 4 4 6 3 7 2 2 1 3 3 2 1 2 7 6 3 4 5 7 5 5 6 3 5 2 8 6 9 11 18 21 22 23 14
24 10 6 11 15 5 2 4 6 5 4 7 6 6 5 4 4 4 2 2 3 6 5 2 5 0 0 1 2 4 3 3 3 2 2 5 8 8 13 9 8 13 11 17 20
27 9 9 14 11 2 4 1 1 4 5 4 1 2 3 5 7 6 2 7 8 7 5 4 5 1 2 1 2 3 1 3 2 3 5 5 6 6 11 7 9 8 8 14 16
21 6 12 12 7 5 3 3 2 3 8 3 3 4 3 5 5 4 5 4 8 9 10 6 3 3 1 5 7 1 2 1 4 4 4 3 6 7 8 4 5 10 19 12 12
11 3 11 15 5 2 2 2 7 3 3 3 2 2 2 4 3 4 4 4 11 12 6 5 4 4 9 4 3 3 6 6 4 5 4 3 9 8 3 6 3 6 16 11 8
10 5 7 12 3 2 3 3 3 4 4 5 3 2 2 1 3 2 4 2 11 9 5 6 3 5 7 4 3 4 5 6 2 3 11 4 7 3 4 5 3 7 19 18 13
5 3 4 7 5 5 2 2 3 4 3 3 3 2 2 2 1 4 4 3 7 11 6 4 4 5 4 1 5 7 11 7 5 5 11 21 21 15 17 19 12 14 17 19 26
1 2 2 3 3 3 3 5 3 3 4 2 2 5 6 2 3 4 2 3 10 10 1 2 4 4 7 12 13 17 18 17 14 23 10 31 15 18 20 16 20 22 26 21 19
4 4 5 4 6 4 6 5 8 7 5 6 8 11 6 6 9 9 4 2 5 3 3 2 4 6 11 12 10 15 20 19 23 16 19 24 32 11 14 23 20 30 31 26 23
7 11 11 8 5 4 6 8 10 9 11 20 13 3 8 18 24 24 19 14 9 6 3 2 2 3 7 6 12 15 14 19 17 16 13 18 25 7 13 18 23 30 29 34 41
Wind_Direction
301 300 300 298 295 292 289 290 299 303 312 321 328 335 336 327 315 297 288 275 268 219 195 196 197 196 192 194 194 187 210 221 228 212 234 229 180 205 235 203 188 185 207 216 195
317 315 311 308 299 294 288 281 285 291 297 311 322 329 335 331 319 306 289 253 230 197 181 188 198 192 183 193 196 181 201 232 211 194 246 256 233 246 233 194 222 211 210 198 190
347 343 338 333 321 307 298 282 279 283 288 301 313 321 330 332 327 355 0 209 202 191 206 207 201 189 199 192 196 206 233 231 240 243 247 242 234 214 193 227 217 215 217 195 190
348 338 334 329 320 314 299 289 278 279 280 290 306 315 320 326 318 332 335 211 199 197 199 197 182 178 185 209 215 239 232 243 262 248 240 230 267 261 207 234 251 254 229 207 195
338 336 332 328 322 314 309 298 289 284 276 281 295 306 310 300 277 296 280 268 218 216 220 204 184 179 186 206 221 236 248 251 244 258 261 269 248 248 252 261 256 258 234 212 208
345 341 338 332 329 324 320 313 304 289 272 274 282 294 295 267 274 285 276 270 253 235 223 204 204 210 260 230 173 230 239 245 257 257 253 228 247 198 246 258 243 240 232 220 216
350 345 340 335 333 329 326 317 312 299 274 269 266 280 277 272 276 271 267 273 269 250 236 224 207 197 296 280 264 269 267 282 233 223 231 216 264 232 245 250 252 247 235 228 224
349 346 342 342 341 337 328 322 317 312 283 255 270 274 260 278 280 265 268 278 275 262 228 253 211 248 236 304 302 261 216 228 217 168 236 188 254 294 246 243 246 249 242 237 227
346 349 350 348 347 343 336 332 336 337 312 274 253 246 279 312 310 285 266 281 292 237 192 178 191 230 241 121 337 254 250 241 313 198 161 192 266 237 246 237 240 248 248 243 235
350 354 352 352 350 353 343 334 355 5 24 223 237 283 286 330 64 33 307 258 39 161 174 193 203 116 14 139 224 216 233 247 241 281 119 166 264 256 224 225 237 250 256 248 242
351 355 354 351 1 6 8 335 323 279 358 261 259 272 283 318 324 329 279 178 127 136 156 344 115 221 221 233 241 65 230 266 273 282 234 236 255 265 255 248 244 254 252 254 247
353 355 359 354 7 15 10 68 44 327 316 334 287 265 272 263 275 270 259 194 166 184 134 39 239 237 235 219 244 255 261 269 280 257 200 286 269 270 245 240 240 238 243 251 247
356 355 2 358 15 5 41 55 15 339 279 294 281 287 307 224 216 300 204 191 170 181 195 184 219 38 180 199 221 243 230 253 249 326 253 304 274 266 261 251 248 242 248 249 243
357 358 359 6 5 6 31 19 5 27 46 273 275 313 292 211 201 263 195 223 214 220 189 233 272 216 160 223 183 266 211 238 250 255 238 91 287 269 259 271 233 245 239 241 238
357 357 3 16 9 4 333 359 23 345 15 283 342 327 269 251 331 6 202 201 241 213 126 244 225 204 215 225 161 228 171 194 210 195 333 225 347 269 300 290 269 247 239 240 236
355 352 348 360 1 349 345 352 27 42 255 337 323 351 354 254 292 86 45 198 252 262 220 245 268 210 208 152 180 121 90 65 44 73 322 221 194 254 192 222 248 245 252 246 236
352 348 351 3 346 356 2 57 33 130 326 319 339 357 334 293 304 169 130 221 204 50 302 306 228 194 166 149 96 136 140 5 327 350 232 332 239 251 267 263 245 265 284 277 244
355 349 14 7 351 350 24 53 101 238 253 327 319 314 280 10 343 29 57 295 239 95 358 216 319 176 182 208 195 175 161 165 202 248 292 74 240 244 249 272 269 265 265 263 263
353 3 12 357 354 354 34 63 204 206 309 329 320 38 320 352 13 1 198 255 293 191 186 221 267 275 102 359 96 227 191 174 56 83 23 244 287 286 282 270 274 262 268 259 245
352 3 18 360 359 336 67 207 118 354 344 349 312 100 342 312 2 20 315 13 338 3 341 288 312 0 357 60 43 166 219 80 23 238 262 276 274 240 304 310 349 320 281 278 247
357 5 359 6 17 62 123 234 21 348 13 340 326 326 341 356 327 305 296 47 353 329 330 349 186 280 66 203 192 128 279 11 138 159 211 300 264 222 259 6 350 322 330 311 247
5 9 354 358 56 50 83 349 335 350 335 322 329 349 336 21 318 278 320 60 9 11 5 339 293 265 221 238 204 180 208 179 174 232 229 189 266 279 240 307 297 347 0 348 297
344 309 354 356 99 6 318 322 351 353 346 352 326 17 84 234 341 247 354 335 24 32 25 346 313 312 332 5 4 227 204 212 137 119 231 184 256 285 303 312 302 346 347 354 334
345 355 353 37 82 115 103 309 339 339 272 268 286 317 34 332 225 277 323 318 18 345 298 279 268 259 253 41 342 300 319 273 213 229 248 241 253 282 299 302 292 297 313 327 317
24 265 159 289 303 149 178 166 251 269 233 233 274 223 225 256 327 258 296 318 328 316 321 115 252 265 281 294 300 286 279 262 234 241 233 258 243 246 253 270 276 299 295 308 305
232 220 210 246 219 168 210 221 213 241 174 233 224 247 230 194 208 242 177 176 228 325 12 350 269 305 284 274 272 291 282 269 254 249 253 264 270 257 285 282 286 280 286 290 290
231 233 242 214 195 196 193 218 220 238 231 232 238 175 255 238 245 254 253 247 228 182 234 225 221 28 270 3 330 295 265 236 247 234 242 251 258 278 271 265 259 267 263 270 280